Regional Weather Roundup
Issued by NWS

Home | Current Version | Previous Version | Text Only | Print | Product List | Glossary On
Versions: 1 2 3 4 5 6 7 8 9 10 11 12 13 14 15 16 17 18 19 20 21 22 23 24 25 26 27 28 29 30 31 32 33 34 35 36 37 38 39 40 41 42 43 44 45 46 47 48 49 50
000
ASUS45 KPSR 060710
RWRAZ

ARIZONA REGIONAL HOURLY WEATHER ROUNDUP
NATIONAL WEATHER SERVICE PHOENIX AZ
1200 AM MST WED MAY 06 2015

NOTE: FAIR INDICATES FEW OR NO CLOUDS BELOW 12,000 FEET WITH NO
SIGNIFICANT WEATHER AND/OR OBSTRUCTIONS TO VISIBILITY.

AZZ001>003-036-060800-
NORTHWEST ARIZONA

CITY           SKY/WX    TMP DP  RH WIND       PRES   REMARKS
BULLHEAD CITY  MOCLDY    75  39  27 S6        29.76S
KINGMAN        MOCLDY    60  33  36 S8        29.89S
$$

AZZ004>008-015-016-018-060800-
NORTH CENTRAL ARIZONA

CITY           SKY/WX    TMP DP  RH WIND       PRES   REMARKS
GRAND CANYON   PTCLDY    42  39  89 SW3       30.02S
WILLIAMS       CLEAR     48  39  71 SW12      30.09F
PRESCOTT       MOCLDY    56  40  55 SE7       29.98S
FLAGSTAFF      PTCLDY    40  40 100 CALM      30.05S
PAYSON         PTCLDY    50  46  87 CALM      30.02S
PAGE           LGT RAIN  58  49  72 SW7       29.89S
$$

AZZ009>014-017-060800-
NORTHEAST ARIZONA

CITY           SKY/WX    TMP DP  RH WIND       PRES   REMARKS
WINSLOW        PTCLDY    54  44  69 SW13      29.95S
SAINT JOHNS    CLOUDY    54  42  64 SW18      29.98F
WINDOW ROCK    CLOUDY    47  43  86 SW7       30.00S
SHOW LOW       PTCLDY    45  39  81 S10       30.05S
$$

AZZ023-060800-
GREATER PHOENIX AREA

CITY           SKY/WX    TMP DP  RH WIND       PRES   REMARKS
PHOENIX        PTCLDY    78  45  30 W6        29.81F
LUKE AFB       PTCLDY    74  46  37 SW10      29.81F
DEER VALLEY    MOCLDY    73  44  35 SW8       29.83S
SCOTTSDALE     PTCLDY    74  45  35 SW3       29.85S
MESA-GATEWAY   MOCLDY    72  48  43 CALM      29.86S
$$

AZZ027-028-060800-
SOUTHWEST MARICOPA COUNTY AND PINAL COUNTY

CITY           SKY/WX    TMP DP  RH WIND       PRES   REMARKS
CASA GRANDE    PTCLDY    72  48  43 CALM      29.84F
GILA BEND      FAIR      72  40  31 SW8       29.81S
$$

AZZ503-504-507>509-060800-
SOUTHEAST ARIZONA

CITY           SKY/WX    TMP DP  RH WIND       PRES   REMARKS
TUCSON         PTCLDY    70  45  40 CALM      29.93F
DAVIS-MONTHAN  PTCLDY    68  47  48 NE3       29.92S
NOGALES        CLEAR     56  39  53 SE3       30.00R
SIERRA VISTA   CLEAR     60  28  29 SW10      30.02S
DOUGLAS        CLEAR     52  36  54 E3        29.99S
SAFFORD        CLEAR     60  45  57 E5        29.92S
$$

AZZ020-021-025-026-031-060800-
SOUTHWEST ARIZONA

CITY           SKY/WX    TMP DP  RH WIND       PRES   REMARKS
YUMA           PTCLDY    74  54  49 S14       29.78S
$$

CAZ031-033-041-043-047-048-061-060800-
SOUTHERN CALIFORNIA

CITY           SKY/WX    TMP DP  RH WIND       PRES   REMARKS
DOWNTOWN L.A.  PTCLDY    58  50  75 CALM      29.95F
L.A. AIRPORT   MOCLDY    58  52  80 W3        29.96S
SAN DIEGO      CLOUDY    62  48  60 SW5       29.99S
BURBANK        CLOUDY    58  47  66 S3        29.95S
ONTARIO        MOCLDY    56  45  66 W7        29.96S
RIVERSIDE      PTCLDY    56  48  74 W3        29.96S
PALM SPRINGS   PTCLDY    70  42  36 NW12      29.79S
EL CENTRO NAS  PTCLDY    69  44  40 W18       29.79S
IMPERIAL       PTCLDY    67  45  45 W13       29.77S
BLYTHE         MOCLDY    77  38  24 SW9       29.78S
NEEDLES        MOCLDY    79  30  16 SW12      29.76S
$$

NVZ020-UTZ003-060800-
SOUTHERN NEVADA-UTAH

CITY           SKY/WX    TMP DP  RH WIND       PRES   REMARKS
LAS VEGAS      MOCLDY    77  33  20 S17       29.72S
SALT LAKE CITY CLOUDY    56  49  77 SE10      29.82F
$$

NMZ009-TXZ055-060800-
NEW MEXICO-WEST TEXAS

CITY           SKY/WX    TMP DP  RH WIND       PRES   REMARKS
ALBUQUERQUE    LGT RAIN  54  47  77 S8        29.97S
EL PASO        CLEAR     69  39  33 NW10      29.93F
$$


........................KEY........................
SKY/WX - SKY CONDITION/WEATHER
TMP    - TEMPERATURE IN FAHRENHEIT
DP     - DEW POINT IN FAHRENHEIT
RH     - RELATIVE HUMIDITY IN PERCENT
WIND   - DIRECTION AND SPEED IN MILES PER HOUR (MPH)
VRB    - VARIABLE WIND DIRECTION
PRES   - MEAN SEA LEVEL PRESSURE IN INCHES OF MERCURY
         F - FALLING PRESSURE   R - RISING PRESSURE
         S - STEADY PRESSURE
VSB    - VISIBILITY IN MILES
HX     - HEAT INDEX IN FAHRENHEIT
WCI    - WIND CHILL INDEX IN FAHRENHEIT
TC     - TEMPERATURE IN CELSIUS WHICH IS ALSO KNOWN AS
         TEMPERATURE IN CENTIGRADE
AFB    - AIR FORCE BASE
         LUKE AFB IS LUKE AIR FORCE BASE
         DAVIS-MONTHAN IS DAVIS-MONTHAN AIR FORCE BASE
NAS    - NAVAL AIR STATION
         EL CENTRO NAS IS EL CENTRO NAVAL AIR STATION
N/A    - NOT AVAILABLE




USA.gov is the U.S. government's official web portal to all federal, state and local government web resources and services.